{"data":{"norad_id":48299,"epoch":"2026-05-25T04:54:10.345824Z","epoch_age_seconds":57109,"freshness":"FRESH","line1":"1 48299U 21036Z   26145.20428641  .00000076  00000+0  14236-4 0  9991","line2":"2 48299  53.1600  79.4704 0001509  97.8112 262.3061 15.31695324280136","mean_motion":15.31695324,"eccentricity":0.0001509,"inclination_deg":53.16,"raan_deg":79.4704,"arg_perigee_deg":97.8112,"mean_anomaly_deg":262.3061,"bstar":1.4236e-5,"rev_number":28013,"period_min":94.013474967036,"perigee_km":469.72043653182,"apogee_km":471.78743181576,"semimajor_km":6848.8909341738,"source":"CELESTRAK","updated_at":"2026-05-25T13:38:16.675891Z"}}